Greenville Downtown, SC

8:48 PM EDT on May 21, 2018 (GMT -0400)
Greenville Downtown

Weather History for KGMU - October, 2011

Change the Weather History Date:

Monday, October 31, 2011

  Actual Average Record
Temperature  
Mean Temperature 50 °F -  
Max Temperature 61 °F 66 °F 84 °F (2016)
Min Temperature 39 °F 47 °F 36 °F (2008)
Degree Days  
Heating Degree Days 16    
Moisture  
Dew Point 34 °F    
Average Humidity 62    
Maximum Humidity 86    
Minimum Humidity 35    
Precipitation  
Precipitation 0.00 in - - ()
Sea Level Pressure  
Sea Level Pressure 30.25 in    
Wind  
Wind Speed 3 mph (NNE)    
Max Wind Speed 8 mph    
Max Gust Speed -    
Visibility 10 miles    
Events      
Averages and records for this station are not official NWS values.
T = Trace of Precipitation, MM = Missing Value Source: NWS Daily Summary

Daily Weather History Graph

Daily Weather History Graph

Search for Another Location

Airport or City:

Astronomy

Oct. 31, 2011 Rise Set
Actual Time 7:48 AM EDT 6:36 PM EDT
Civil Twilight 7:22 AM EDT 7:02 PM EDT
Nautical Twilight 6:53 AM EDT 7:32 PM EDT
Astronomical Twilight 6:23 AM EDT 8:01 PM EDT
Moon 12:50 PM EDT (10/31) 11:15 PM EDT (10/31)
Length of Visible Light 11h 39m
Length of Day
10h 47m
Waxing Crescent, 29% of the Moon is Illuminated
Oct 31
Waxing Crescent
Nov 2
First Quarter
Nov 10
Full
Nov 18
Last Quarter
Nov 25
New

Hourly Weather History & Observations

Time (EDT) Temp. Windchill Dew Point Humidity Pressure Visibility Wind Dir Wind Speed Gust Speed Precip Events Conditions
12:53 AM 44.1 °F - 34.0 °F 68% 30.30 in 10.0 mi Calm Calm - N/A   Clear
1:53 AM 45.0 °F - 33.1 °F 63% 30.30 in 10.0 mi Calm Calm - N/A   Clear
2:53 AM 39.0 °F - 35.1 °F 86% 30.30 in 10.0 mi Calm Calm - N/A   Clear
3:53 AM 39.0 °F 34.0 °F 34.0 °F 82% 30.28 in 10.0 mi North 6.9 mph - N/A   Clear
4:53 AM 39.9 °F 35.8 °F 33.1 °F 77% 30.28 in 10.0 mi North 5.8 mph - N/A   Clear
5:53 AM 39.0 °F 36.8 °F 33.1 °F 79% 30.28 in 10.0 mi North 3.5 mph - N/A   Clear
6:53 AM 39.0 °F 35.7 °F 33.1 °F 79% 30.27 in 10.0 mi North 4.6 mph - N/A   Clear
7:53 AM 39.9 °F 36.7 °F 33.1 °F 77% 30.28 in 10.0 mi North 4.6 mph - N/A   Clear
8:53 AM 39.9 °F 35.1 °F 34.0 °F 79% 30.28 in 10.0 mi North 6.9 mph - N/A   Clear
9:53 AM 43.0 °F 38.2 °F 35.1 °F 74% 30.28 in 10.0 mi NNE 8.1 mph - N/A   Clear
10:53 AM 50.0 °F - 36.0 °F 59% 30.29 in 10.0 mi NE 6.9 mph - N/A   Clear
11:53 AM 53.1 °F - 37.0 °F 55% 30.27 in 10.0 mi East 5.8 mph - N/A   Clear
12:53 PM 54.0 °F - 34.0 °F 47% 30.26 in 10.0 mi Calm Calm - N/A   Clear
1:53 PM 55.9 °F - 33.1 °F 42% 30.23 in 10.0 mi Calm Calm - N/A   Clear
2:53 PM 57.9 °F - 32.0 °F 37% 30.20 in 10.0 mi Variable 3.5 mph - N/A   Scattered Clouds
3:53 PM 60.1 °F - 32.0 °F 35% 30.18 in 10.0 mi Variable 4.6 mph - N/A   Clear
4:53 PM 59.0 °F - 30.9 °F 35% 30.18 in 10.0 mi Calm Calm - N/A   Clear
6:53 PM 55.0 °F - 34.0 °F 45% 30.19 in 10.0 mi East 3.5 mph - N/A   Clear
7:53 PM 52.0 °F - 35.1 °F 53% 30.21 in 10.0 mi ENE 5.8 mph - N/A   Clear
8:53 PM 51.1 °F - 34.0 °F 52% 30.23 in 10.0 mi NE 6.9 mph - N/A   Clear
10:53 PM 46.0 °F 43.9 °F 36.0 °F 68% 30.25 in 10.0 mi North 4.6 mph - N/A   Clear
11:53 PM 46.9 °F - 35.1 °F 63% 30.24 in 10.0 mi North 3.5 mph - N/A   Clear